Regional Weather Roundup
Issued by NWS

Home | Current Version | Previous Version | Text Only | Print | Product List | Glossary Off
Versions: 1 2 3 4 5 6 7 8 9 10 11 12 13 14 15 16 17 18 19 20 21 22 23 24 25 26 27 28 29 30 31 32 33 34 35 36 37 38 39 40 41 42 43 44 45 46 47 48 49 50

000
ASUS45 KBOU 022107
RWRCO

WEATHER ROUNDUP FOR COLORADO
NATIONAL WEATHER SERVICE DENVER/BOULDER CO
300 PM MDT TUE JUN 02 2015

NOTE: "FAIR" INDICATES FEW OR NO CLOUDS BELOW 12000 FEET WITH NO
SIGNIFICANT WEATHER AND/OR OBSTRUCTIONS TO VISIBILITY.

COZ001>005-013-030-031-022200-
...NORTHWEST COLORADO...

CITY           SKY/WX    TMP DP  RH WIND       PRES   REMARKS
CRAIG          SUNNY     78  30  17 SW18G24   30.02F
HAYDEN         SUNNY     77  28  16 W13G26    30.05S
MEEKER         SUNNY     80  26  13 SW16G23   30.04F
MOUNT WERNER   NOT AVBL
STEAMBOAT SPGS SUNNY     74  31  20 W15G22    30.06S
WALDEN         MOSUNNY   70  28  21 W10G18    30.14F
$$

COZ006>008-011-022200-
...WEST CENTRAL VALLEYS...

CITY           SKY/WX    TMP DP  RH WIND       PRES   REMARKS
GRAND JUNCTION SUNNY     87  25  10 NW13G23   29.92F
MONTROSE       SUNNY     86  21   9 SW16G24   30.02F
EAGLE          SUNNY     84  32  15 SW15G30   30.06F
RIFLE          SUNNY     84  30  14 W15       29.97F
DELTA          SUNNY     90  16   6 SW13G20   29.98F
NUCLA          SUNNY     82  12   7 SW24      30.09S
$$

COZ017>023-064>068-022200-
...SOUTHWEST COLORADO...

CITY           SKY/WX    TMP DP  RH WIND       PRES   REMARKS
DURANGO        NOT AVBL
CORTEZ         SUNNY     83  20   9 S12G17    30.09F
PAGOSA SPRINGS SUNNY     74  10   8 SW14      30.21F
TELLURIDE      SUNNY     69  18  14 SW13G22   30.28F
WOLF CREEK PAS NOT AVBL
$$

COZ009-010-012-014-032>034-037-058>063-022200-
...CENTRAL COLORADO...

CITY           SKY/WX    TMP DP  RH WIND       PRES   REMARKS
ASPEN          SUNNY     73  24  16 VRB7G18   30.14F
BUENA VISTA    SUNNY     77  18  10 SW13G24   30.14F
COPPER MTN     SUNNY     54   9  16 SW8G20    30.45S
BERTHOUD PASS  FAIR      46  37  71 MISG      30.48F
COTTONWOOD PAS NOT AVBL
GUNNISON       SUNNY     73  25  16 SW12G17   30.16F
KREMMLING      MOSUNNY   77  18  10 SW16G23   30.11S
LEADVILLE      SUNNY     66  17  15 W12G21    30.28F
MONARCH PASS   SUNNY     54  25  32 W25G38    30.55F
SALIDA         MOSUNNY   81  28  14 SW10G20   30.17F
SUNLIGHT       SUNNY     61  27  27 SW3       30.37S
WILKERSON PASS MOSUNNY   64  16  15 SW10G20   30.41F
$$

COZ069>075-022200-
...SAN LUIS VALLEY/SANGRE DE CRISTO MOUNTAINS...

CITY           SKY/WX    TMP DP  RH WIND       PRES   REMARKS
ALAMOSA        SUNNY     81   7   6 W22       30.13F
LA VETA PASS   SUNNY    N/A N/A N/A MISG      30.33S
SAGUACHE       SUNNY     77  27  15 S14G25    30.14F
$$

COZ035-036-038>040-022200-
...NORTHERN COLORADO FRONT RANGE...

CITY           SKY/WX    TMP DP  RH WIND       PRES   REMARKS
DENVER INTL AP MOSUNNY   85  40  20 E12G18    29.91F
DMNS CITY PARK   N/A     86  34  15 E8G16     29.89F
AURORA         NOT AVBL
FRONT RANGE AP MOSUNNY   86  32  14 VRB6      29.94F
ERIE MUNI ARPT SUNNY     87  28  12 E8        29.89F
BOULDER MUN AP SUNNY     86  36  16 E7        29.90F
CENTENNIAL     MOSUNNY   86  29  12 VRB6      29.94F
BROOMFIELD     MOSUNNY   86  36  16 E6        29.94F
FORT COLLINS   SUNNY     86  37  17 W13       29.87F
LONGMONT       SUNNY     91  33  12 SE10      29.90F
$$

COZ041-046-047-076>085-087-088-022200-
...PIKES PEAK/PALMER DIVIDE AND SOUTHERN FOOTHILLS...

CITY           SKY/WX    TMP DP  RH WIND       PRES   REMARKS
COLO. SPRINGS  MOSUNNY   86  27  11 W10       29.98F
A. F. ACADEMY  NOT AVBL
ELLICOTT       SUNNY    N/A N/A N/A W8G24     29.98F
FALCON         SUNNY     83  27  13 E3        30.05F
FORT CARSON    NOT AVBL
LIMON          SUNNY     85  39  19 E7        29.94F
MONUMENT HILL  SUNNY     81  30  16 S13G20    30.06S
TRINIDAD       SUNNY     85  36  17 E7        29.98F
$$

COZ042>045-048>051-090-091-022200-
...NORTHEAST COLORADO...

CITY           SKY/WX    TMP DP  RH WIND       PRES   REMARKS
GREELEY ARPT   SUNNY     86  45  23 E3        29.88F
AKRON          SUNNY     85  49  28 MISG      29.89F
BURLINGTON     MOSUNNY   88  54  31 VRB5      29.87F
WRAY           MOSUNNY   88  58  36 SE5       29.83F
STERLING       SUNNY     86  55  35 W3        29.84S
HOLYOKE        NOT AVBL
FORT MORGAN    SUNNY     86  47  26 W8        29.89S
$$

COZ086-089-092>099-022200-
...SOUTHEAST COLORADO...

CITY           SKY/WX    TMP DP  RH WIND       PRES   REMARKS
PUEBLO         SUNNY     87  41  19 S9G20     29.88F
LA JUNTA       SUNNY     91  38  15 VRB3      29.87F
LAMAR          MOSUNNY   90  51  26 VRB5      29.83F
SPRINGFIELD      N/A     88  49  25 S8        29.90F
$$



USA.gov is the U.S. government's official web portal to all federal, state and local government web resources and services.